Location: Asheville, NC
(35.6000°N, 82.5500°W)
Time: 23:45:51
(UTC-04:00)

Hubble Space Telescope - Pass Details

Date: 05 January 2018
Orbit: 537 x 541 km, 28.5° (Epoch: 25 April)

Event Time Altitude Azimuth Distance (km) Brightness Sun altitude
Exits shadow 06:32:59 10° 240° (WSW) 1,776 3.0 -13.4°
Maximum altitude 06:36:35 30° 178° (S) 975 2.3 -12.7°
Drops below altitude 10° 06:40:13 10° 117° (ESE) 1,781 4.9 -12.0°
Sets 06:42:40 0° 106° (ESE) 2,671 6.5 -11.6°
